Regional Weather Roundup
Issued by NWS State College, PA

Home | Current Version | Previous Version | Text Only | Print | Product List | Glossary On
Versions: 1 2 3 4 5 6 7 8 9 10 11 12 13 14 15 16 17 18 19 20 21 22 23 24 25 26 27 28 29 30 31 32 33 34 35 36 37 38 39 40 41 42 43 44 45 46 47 48 49 50
000
ASUS41 KCTP 061903
RWRCTP

REGIONAL WEATHER ROUNDUP
NATIONAL WEATHER SERVICE STATE COLLEGE PA
200 PM EST FRI MAR 06 2015

Note: "fair" indicates few or no clouds below 12,000 feet with no
significant weather and/or obstructions to visibility.

* = STATION THAT DOES NOT REPORT PRECIPITATION /E.G. RAIN...SNOW...ETC/
    THUNDER OR FOG.

PAZ002>004-007>009-013>016-020>023-029>032-062000-
WESTERN PENNSYLVANIA

CITY           SKY/WX    TMP DP  RH WIND       PRES   REMARKS
ERIE           SUNNY     23   4  44 SW10      30.40F WCI  12
MEADVILLE      SUNNY     19   3  49 S12       30.36F WCI   7
FRANKLIN*      SUNNY     19   3  49 SW6       30.38F WCI  11
NEW CASTLE     FAIR      22   4  46 CALM      30.42F
BEAVER COUNTY  SUNNY     23   5  46 S8        30.41F WCI  14
BUTLER*        SUNNY     19   3  49 S9        30.42F WCI   9
PITTSBURGH INT PTSUNNY   20   5  52 S9        30.42F WCI   9
PITTSBURGH     SUNNY     19   4  51 SW5       30.42F WCI  12
INDIANA*       SUNNY     18   9  68 W7        30.44F WCI   8
LATROBE        MOSUNNY   18   3  53 W8        30.45F WCI   7
WASHINGTON CO* SUNNY     19   7  58 CALM      30.44F
$$

PAZ004>006-010>012-017>019-024>028-033>037-041-042-045-046-049>053-062000-
CENTRAL PENNSYLVANIA

CITY           SKY/WX    TMP DP  RH WIND       PRES   REMARKS
BRADFORD       SUNNY     19  -1  41 VRB7      30.28F WCI  10
DUBOIS         SUNNY     17   0  47 SW10      30.34F WCI   5
CLEARFIELD     MIX PCPN  20   2  45 SW10      30.37F WCI   9
JOHNSTOWN      SUNNY     17   2  51 SW7       30.31F WCI   8
ALTOONA        SUNNY     20  -1  40 CALM      30.38F
STATE COLLEGE  SUNNY     19   1  45 SW6       30.38F WCI  11
WILLIAMSPORT   SUNNY     22  -2  35 S6        30.44F WCI  14
SELINSGROVE    SUNNY     20   2  45 S8        30.48F WCI  10
FT INDIANTOWN  SUNNY     20   4  48 SW8       30.46F WCI  11
CAPITAL CITY   SUNNY     20   3  48 SW6       30.49F WCI  12
HARRISBURG     SUNNY     20   2  45 NW6       30.49F WCI  12
YORK           SUNNY     19   1  45 W3        30.48F
$$

PAZ038>040-043-044-047-048-054-055-060>062-067>071-062000-
EASTERN PENNSYLVANIA

CITY           SKY/WX    TMP DP  RH WIND       PRES   REMARKS
SCRANTON       SUNNY     22   0  38 CALM      30.41F
MOUNT POCONO   MIX PCPN  20  -3  36 SW9       30.30F WCI   9
ALLENTOWN      SUNNY     21   5  50 SW7       30.47F WCI  12
QUAKERTOWN*    CLEAR     21   5  49 CALM      30.47F
READING        SUNNY     21   4  47 W5        30.48F WCI  15
LANCASTER      SUNNY     18   4  54 W6        30.49F WCI  10
COATESVILLE    CLEAR     19   7  58 W8        30.47F WCI   9
POTTSTOWN      SUNNY     21   3  45 VRB6      30.49F WCI  13
BLUE BELL      SUNNY     25  10  54 W5        30.47F
DOYLESTOWN     SUNNY     22   8  55 NW5       30.46F
WILLOW GROVE   NOT AVBL
NORTH PHILA    SUNNY     25  14  63 N5        30.50F
PHILADELPHIA   SUNNY     24   8  50 CALM      30.51F
$$


USA.gov is the U.S. government's official web portal to all federal, state and local government web resources and services.